Location: Perryvale
(54.4667°N, 113.3833°W)
Time: 23:47:26
(UTC+00:00)

SR - Pass Details

Date: 27 May 2024
Orbit: 580 x 858 km, 66.7° (Epoch: 13 June)

Event Time Altitude Azimuth Distance (km) Brightness Sun altitude
Rises 06:29:45 0° 315° (NW) 2,952 ? -13.0°
Reaches altitude 10° 06:32:22 10° 327° (NNW) 2,001 ? -13.1°
Maximum altitude 06:36:14 28° 27° (NNE) 1,147 ? -13.2°
Drops below altitude 10° 06:39:57 10° 87° (E) 1,915 ? -13.4°
Sets 06:42:24 0° 100° (E) 2,802 ? -13.4°
